Location: Laura�t
(43.9341°N, 0.2497°E)
Time: 23:24:49
(UTC+00:00)

Cosmos 1844 - Pass Details

Date: 03 March 2021
Orbit: 822 x 868 km, 70.9° (Epoch: 16 April)

Event Time Altitude Azimuth Distance (km) Brightness Sun altitude
Rises 18:33:51 0° 340° (NNW) 3,459 7.2 -8.7°
Reaches altitude 10° 18:36:34 10° 349° (N) 2,514 6.3 -9.1°
Maximum altitude 18:41:49 35° 55° (NE) 1,365 4.4 -10.1°
Enters shadow 18:46:58 10° 120° (ESE) 2,467 5.6 -11.0°
